Location: Abundant Life Church
(26.6281°N, 81.8429°W)
Time: 15:10:37
(UTC+00:00)

Daily predictions for brighter satellites

Satellite Brightness Start Highest point End
(mag) Time Altitude Azimuth Time Altitude Azimuth Time Altitude Azimuth
NOSS 3-1 (A) 4.3 22:39:42 10° NNW 22:47:53 69° ENE 22:56:58 10° SE
Cosmos 1570 Rocket 4.1 22:47:51 10° SSW 22:53:07 90° NNE 22:58:21 10° NNE
Cosmos 1151 Rocket 3.0 22:53:54 10° S 22:58:09 68° E 23:02:28 10° NNE
NOAA 12 4.4 22:54:04 10° S 22:59:22 75° WSW 23:04:42 10° NNW
COSMO-SKYMED 1 3.2 22:55:52 10° NNE 22:59:52 36° E 23:03:52 10° SSE
X-37B 2.2 22:57:32 10° W 22:59:57 24° NW 23:02:23 10° NNE
AQUARIUS 4.2 22:57:13 10° SSE 23:01:37 58° ENE 23:06:01 10° N
Intercosmos 25 4.1 22:55:00 10° N 23:02:00 83° E 23:06:18 10° S
Cosmos 1633 Rocket 4.0 22:59:55 10° NNE 23:03:39 27° E 23:07:23 10° SE
Cosmos 1697 Rocket 2.8 23:02:10 10° NNW 23:07:48 87° WSW 23:13:24 10° SSE
Cosmos 1092 Rocket 4.3 23:01:31 10° N 23:07:51 78° W 23:14:07 10° S
SMAP 3.1 23:04:20 10° SSE 23:08:58 88° ENE 23:13:38 10° NNW
BREEZE-M R/B 4.1 23:05:14 10° NW 23:09:31 79° SW 23:25:09 10° SE
CORIOLIS 4.1 23:06:10 10° SSE 23:11:32 78° ENE 23:16:56 10° N
Cosmos 1898 Rocket 4.2 23:07:46 10° NNW 23:12:53 59° WSW 23:17:57 10° S
Cosmos 1980 Rocket 2.4 23:07:49 10° N 23:13:14 47° ENE 23:18:35 10° SE
GPS 2-04 Rocket1 3.6 23:12:19 10° NW 23:16:06 34° NNE 23:19:16 13° ENE
Delta 128 4.5 23:12:51 10° W 23:20:03 81° N 23:25:39 12° E
Cosmos 2082 Rocket 4.2 23:15:27 10° WSW 23:20:06 26° WNW 23:24:47 10° N
Cosmos 1939 Rocket 3.9 23:16:19 10° S 23:20:19 51° W 23:24:18 10° NNW
Landsat 5 3.7 23:16:35 10° NNE 23:20:21 41° E 23:24:00 10° S
ISS -1.5 23:19:46 10° NNE 23:20:29 11° NE 23:20:29 11° NE
Cosmos 2369 3.7 23:15:01 10° NNW 23:20:44 75° ENE 23:26:24 10° SSE
Cosmos 2279 Rocket 4.2 23:15:32 10° S 23:21:44 78° W 23:27:57 10° N
Okean O Rocket 2.6 23:18:07 10° SE 23:21:44 25° ENE 23:25:22 10° NNE
Cosmos 1328 Rocket 3.6 23:18:14 10° S 23:22:40 86° W 23:27:07 10° N
SKYMED 3 4.5 23:19:40 10° NNE 23:24:01 78° ESE 23:28:20 10° S
CZ-4C R/B 3.6 23:17:09 10° N 23:24:21 38° ENE 23:32:14 10° ESE
ARGOS 3.7 23:22:36 10° SE 23:27:27 35° ENE 23:32:18 10° N
SL-16 R/B 3.8 23:24:52 10° NNE 23:27:08 14° NE 23:27:08 14° NE
Meteor 1-5 Rocket 4.3 23:23:04 10° N 23:28:56 62° E 23:34:38 10° SSE
Cosmos 1666 Rocket 3.5 23:27:10 10° N 23:31:35 82° E 23:35:55 10° S
SWIFT 4.5 23:28:28 10° WSW 23:31:44 21° SSW 23:34:59 10° SE
CZ-4B DEB 4.4 23:27:10 10° S 23:32:42 79° WSW 23:38:13 10° NNW
Aureole 3 Rocket 3.7 23:29:36 10° SSE 23:32:49 29° E 23:36:56 10° NNE
CZ-2D R/B 3.2 23:29:32 10° S 23:33:22 87° WSW 23:37:12 10° NNW
MOS 1-B 4.3 23:28:32 10° SSE 23:34:15 72° ENE 23:40:01 10° N
Cosmos 1470 Rocket 4.1 23:30:56 10° NNE 23:35:03 36° E 23:39:10 10° SSE
Cosmos 1867 3.5 23:30:17 10° SSW 23:35:41 78° ESE 23:40:49 12° NNE
Meteor 2-15 4.4 23:31:04 10° S 23:37:12 86° E 23:43:18 10° N
H-2A R/B 2.0 23:32:20 10° SSE 23:37:35 83° ENE 23:42:40 10° N
Cosmos 2266 Rocket 4.5 23:31:41 10° NNE 23:37:37 39° E 23:43:30 10° SSE
Meteor 1-14 Rocket 4.4 23:34:33 10° N 23:40:29 89° W 23:46:27 10° S
Cosmos 2278 3.6 23:38:16 10° N 23:43:53 63° ENE 23:49:28 10° SSE
USA 32 4.2 23:39:54 10° SSE 23:44:55 50° E 23:49:57 10° NNE
SKYMED 2 4.4 23:43:42 10° N 23:47:54 50° WNW 23:52:04 10° SSW
SOZ 4.3 23:47:02 10° SSW 23:48:56 50° SSE 23:48:56 50° SSE
USA 276 4.4 23:48:26 10° WNW 23:51:04 25° SW 23:53:41 10° S
deb Chang Zheng 4 3.4 23:47:49 10° SSE 23:52:05 72° ENE 23:56:22 10° N
SJ-11-01 4.2 23:48:37 10° SSE 23:53:18 67° ENE 23:58:01 10° N
